[[{"header":{"parameterUnit":"m.s-1","parameterCategory":2,"la1":30.2991,"la2":30.254,"lo1":-89.0895,"lo2":-89.0444,"dy":0.0017,"dx":0.0017,"nx":28,"ny":28,"refTime":"2025-09-17T09:00:00:Z","depth":"0","parameterNumber":2,"parameterNumberName":"U-component_of_CURRENTS"},"data":[0,0,0,0,0,0,0,0,0,0,0,0,0,0,0,0,0,0,0,0,0,0,0,0,0,0,0,0,0,0,0,0,0,0,0,0,0,0,0,0,0,0,0,0,0,0,0,0,0,0,0,0,0,0,0,0,0,0,-0.2571,-0.2572,0,-0.2642,-0.2642,-0.2643,-0.2801,-0.2805,-0.2809,-0.2812,-0.2942,-0.2942,-0.2942,0,0,0,0,0,0,0,0,0,0,0,0,0,-0.2613,-0.261,-0.2571,-0.2572,-0.2574,-0.2642,-0.2642,-0.2643,-0.28,-0.2805,-0.281,-0.2814,-0.2942,-0.2942,-0.2942,0,0,0,0,0,0,0,0,0,0,0,0,0,-0.2623,-0.2609,-0.2571,-0.2666,-0.2676,-0.2642,-0.2642,-0.2643,-0.2799,-0.2805,-0.2811,-0.2816,-0.2942,-0.2942,-0.2942,-0.2822,0,0,-0.2941,-0.2941,0,0,0,0,0,0,0,0,-0.2622,-0.262,-0.2651,-0.266,-0.2671,-0.2725,-0.2705,-0.2708,-0.2798,-0.2744,-0.2812,-0.2819,-0.2875,-0.2881,-0.287,-0.2829,-0.2834,-0.2941,-0.2941,-0.294,-0.294,0,0,0,0,0,0,0,-0.2621,-0.2618,-0.2592,-0.2652,-0.2664,-0.272,-0.2727,-0.2706,-0.2771,-0.275,-0.2763,-0.2781,-0.2881,-0.287,-0.2874,-0.2836,-0.2941,-0.2941,-0.294,-0.294,-0.2693,-0.2687,0,0,0,0,0,0,-0.2617,-0.2616,-0.259,-0.2595,-0.2669,-0.2715,-0.2722,-0.2696,-0.2771,-0.279,-0.2776,-0.2788,-0.2867,-0.2875,-0.288,-0.2747,-0.294,-0.294,-0.294,-0.2699,-0.2692,-0.2685,0,0,0,0,0,0,-0.2617,-0.2612,-0.2587,-0.2617,-0.2619,-0.2709,-0.2677,-0.2694,-0.2708,-0.2792,-0.2812,-0.2777,-0.2872,-0.288,-0.2817,-0.2754,-0.294,-0.294,-0.2707,-0.2697,-0.2688,-0.2479,0,0,0,0,0,0,-0.2617,-0.261,-0.2573,-0.2614,-0.2617,-0.2529,-0.2673,-0.2692,-0.2712,-0.2729,-0.2797,-0.2815,-0.2877,-0.2816,-0.2817,-0.2757,-0.294,-0.2715,-0.2703,-0.2691,-0.2494,-0.2463,-0.2437,0,0,0,0,0,-0.2617,-0.2527,-0.2569,-0.2567,-0.2566,-0.2525,-0.2527,-0.2611,-0.2706,-0.2655,-0.2699,-0.2814,-0.2743,-0.2809,-0.2812,-0.2751,-0.2721,-0.2706,-0.2692,-0.2507,-0.2469,-0.2438,0,0,0,0,0,0,-0.2502,-0.2537,-0.2584,-0.2504,-0.2507,-0.2555,-0.2522,-0.2591,-0.2584,-0.262,-0.2717,-0.2729,-0.2654,-0.2699,-0.2772,-0.2635,-0.2755,-0.274,-0.2613,-0.2579,-0.2551,-0.2617,-0.2939,0,0,0,0,0,-0.2463,-0.2419,-0.2456,-0.2387,-0.2387,-0.2455,-0.2454,-0.2511,-0.2527,-0.2536,-0.2581,-0.2608,-0.2582,-0.2584,-0.2566,-0.2479,-0.2544,-0.244,-0.2412,-0.2388,-0.2435,-0.243,-0.2408,-0.2637,-0.2638,-0.2638,0,0,-0.2397,-0.2414,-0.2386,-0.2363,-0.2382,-0.2345,-0.2465,-0.2444,-0.2424,-0.2543,-0.2497,-0.2503,-0.2529,-0.2435,-0.2409,-0.248,-0.2333,-0.237,-0.235,-0.2412,-0.2413,-0.2392,-0.2373,-0.2628,-0.2629,-0.2631,0,0,-0.2251,-0.2258,-0.2186,-0.2184,-0.2209,-0.2243,-0.2235,-0.2268,-0.229,-0.2218,-0.2306,-0.2267,-0.2227,-0.224,-0.2241,-0.2035,-0.2174,-0.2025,-0.1954,-0.1944,-0.1929,-0.1916,-0.1893,-0.188,-0.2023,-0.2023,-0.2022,0,-0.2165,-0.212,-0.2148,-0.2096,-0.2114,-0.2195,-0.215,-0.2136,-0.2144,-0.216,-0.2175,-0.2133,-0.2137,-0.2082,-0.2006,-0.1982,-0.2007,-0.209,-0.1916,-0.1905,-0.1895,-0.1877,-0.1866,-0.2011,-0.2012,-0.2014,-0.2015,0,-0.1997,-0.1976,-0.1928,-0.1914,-0.1899,-0.187,-0.1898,-0.1879,-0.1924,-0.1949,-0.1895,-0.1869,-0.1885,-0.183,-0.1855,-0.1783,-0.1826,-0.1875,-0.2024,-0.1861,-0.1848,-0.1841,-0.1994,-0.1998,-0.2002,-0.2005,0,0,-0.1787,-0.1812,-0.1804,-0.1832,-0.1838,-0.1822,-0.1765,-0.1769,-0.1789,-0.1735,-0.1742,-0.1634,-0.1694,-0.1697,-0.1716,-0.1688,-0.1578,-0.175,-0.1755,-0.1766,-0.1553,-0.1471,-0.1456,-0.161,-0.1609,-0.1608,-0.1546,0,-0.1671,-0.1609,-0.1638,-0.1594,-0.1592,-0.1661,-0.1618,-0.1629,-0.1644,-0.1641,-0.1635,-0.1616,-0.1621,-0.1629,-0.1591,-0.1615,-0.1561,-0.1591,-0.1681,-0.1683,-0.1663,-0.1445,-0.1351,-0.1281,-0.154,-0.1539,-0.1538,0,-0.1526,-0.1533,-0.1488,-0.1557,-0.1556,-0.1521,-0.1573,-0.1543,-0.1554,-0.1568,-0.1569,-0.1594,-0.1554,-0.1568,-0.1531,-0.156,-0.1539,-0.1532,-0.1531,-0.1551,-0.1588,-0.1495,-0.1259,-0.1254,-0.1528,-0.1529,-0.153,0,-0.1462,-0.1445,-0.1446,-0.1454,-0.149,-0.1491,-0.1508,-0.1527,-0.1536,-0.1545,-0.1559,-0.1544,-0.1541,-0.1522,-0.1497,-0.1525,-0.1452,-0.1497,-0.1391,-0.1386,-0.1378,-0.1373,-0.1196,-0.1441,-0.1441,-0.1442,-0.1442,0,-0.1381,-0.1378,-0.1424,-0.1425,-0.1426,-0.1463,-0.1465,-0.1482,-0.1509,-0.1503,-0.1536,-0.1518,-0.1532,-0.1501,-0.1482,-0.1398,-0.1438,-0.1352,-0.1352,-0.1285,-0.1273,-0.1336,-0.1385,-0.1439,-0.144,-0.144,-0.1441,0,-0.1315,-0.1347,-0.1349,-0.139,-0.14,-0.14,-0.1443,-0.1453,-0.1485,-0.1478,-0.1482,-0.1498,-0.1446,-0.1435,-0.1391,-0.1364,-0.1271,-0.1262,-0.1168,-0.1156,-0.1056,-0.1097,-0.1016,-0.0991,-0.114,-0.1137,-0.1135,0,-0.1279,-0.1275,-0.1313,-0.1321,-0.1336,-0.1354,-0.1371,-0.1423,-0.1438,-0.1443,-0.1435,-0.1398,-0.1305,-0.1217,-0.1181,-0.1104,-0.1144,-0.0991,-0.101,-0.0996,-0.1045,-0.1099,-0.109,-0.0891,-0.0886,-0.0883,-0.0881,0,-0.1209,-0.1223,-0.1233,-0.1255,-0.1273,-0.1279,-0.1307,-0.1313,-0.1355,-0.1316,-0.1225,-0.1139,-0.108,-0.0932,-0.0882,-0.086,-0.0963,-0.092,-0.0934,-0.084,-0.0865,-0.0859,-0.0992,-0.0851,-0.0854,-0.0856,-0.0858,-0.0859,-0.1146,-0.114,-0.1161,-0.1173,-0.1196,-0.1174,-0.1104,-0.1126,-0.1065,-0.0944,-0.0964,-0.0741,-0.0655,-0.0551,-0.0602,-0.0629,-0.0726,-0.0617,-0.0667,-0.0723,-0.0686,-0.0731,-0.0579,-0.058,-0.0581,-0.0582,-0.0583,0,-0.1064,-0.107,-0.1082,-0.1069,-0.1034,-0.1071,-0.1035,-0.0925,-0.0764,-0.0674,-0.0502,-0.0221,-0.0147,-0.021,-0.0297,-0.0361,-0.043,-0.0409,-0.0477,-0.0481,-0.0525,-0.0499,-0.0286,-0.0286,-0.0286,-0.0286,-0.0286,-0.0286,-0.1021,-0.1006,-0.102,-0.0921,-0.0883,-0.0738,-0.0658,-0.0514,-0.0403,-0.012,0.0078,0.0178,0.0155,0.0001,-0.0194,-0.026,-0.0331,-0.0326,-0.0401,-0.045,-0.0475,-0.0499,-0.0481,-0.0268,-0.0268,-0.0311,-0.0312,-0.0312]},{"header":{"parameterUnit":"m.s-1","parameterCategory":2,"la1":30.2991,"la2":30.254,"lo1":-89.0895,"lo2":-89.0444,"dy":0.0017,"dx":0.0017,"nx":28,"ny":28,"refTime":"2025-09-17T09:00:00:Z","depth":"0","parameterNumber":3,"parameterNumberName":"V-component_of_CURRENTS"},"data":[0,0,0,0,0,0,0,0,0,0,0,0,0,0,0,0,0,0,0,0,0,0,0,0,0,0,0,0,0,0,0,0,0,0,0,0,0,0,0,0,0,0,0,0,0,0,0,0,0,0,0,0,0,0,0,0,0,0,-0.0434,-0.0433,0,-0.0269,-0.0267,-0.0265,-0.0148,-0.0148,-0.0147,-0.0147,0.011,0.0117,0.0123,0,0,0,0,0,0,0,0,0,0,0,0,0,-0.0577,-0.0575,-0.0434,-0.0433,-0.0431,-0.027,-0.0267,-0.0264,-0.0148,-0.0148,-0.0147,-0.0147,0.0108,0.0116,0.0124,0,0,0,0,0,0,0,0,0,0,0,0,0,-0.0469,-0.0574,-0.0434,-0.0358,-0.035,-0.027,-0.0267,-0.0263,-0.0148,-0.0148,-0.0147,-0.0147,0.0106,0.0115,0.0125,0.0173,0,0,0.0154,0.0159,0,0,0,0,0,0,0,0,-0.0475,-0.0463,-0.0371,-0.0363,-0.0354,-0.0234,-0.0223,-0.0115,-0.0149,-0.0219,-0.0147,-0.0146,-0.0,0.0018,0.0055,0.0185,0.0196,0.0155,0.0161,0.0165,0.0168,0,0,0,0,0,0,0,-0.0483,-0.0469,-0.0363,-0.0369,-0.0359,-0.0308,-0.0292,-0.0202,-0.0109,-0.0213,-0.0205,-0.0196,0.0006,0.0045,0.0062,0.02,0.0155,0.0164,0.017,0.0173,0.035,0.0349,0,0,0,0,0,0,-0.0519,-0.0476,-0.0368,-0.0359,-0.0421,-0.0307,-0.0288,-0.0268,-0.0111,-0.0089,-0.0197,-0.0192,0.0028,0.005,0.0071,0.011,0.0165,0.0174,0.018,0.0351,0.035,0.0348,0,0,0,0,0,0,-0.0522,-0.051,-0.0375,-0.0419,-0.0399,-0.0306,-0.0284,-0.0266,-0.0225,-0.0102,-0.0076,-0.0176,0.0029,0.0058,0.0131,0.0122,0.0179,0.0188,0.0352,0.0351,0.0349,0.0207,0,0,0,0,0,0,-0.0527,-0.0512,-0.0508,-0.0421,-0.0398,-0.034,-0.0284,-0.0263,-0.0223,-0.0214,-0.0075,-0.0051,0.0032,0.0116,0.0141,0.0137,0.0195,0.0354,0.0352,0.035,0.0213,0.02,0.0189,0,0,0,0,0,-0.0532,-0.0521,-0.0509,-0.0496,-0.0396,-0.0341,-0.0324,-0.0252,-0.0223,-0.0211,-0.013,-0.0055,0.012,0.0123,0.0152,0.0151,0.0355,0.0352,0.035,0.0218,0.0203,0.019,0,0,0,0,0,0,-0.0568,-0.0506,-0.0491,-0.0459,-0.0417,-0.0324,-0.0301,-0.0261,-0.0185,-0.0173,-0.006,-0.003,0.0022,0.0105,0.0105,0.0192,0.0247,0.025,0.0136,0.0123,0.0112,0.0118,0.0203,0,0,0,0,0,-0.0584,-0.0561,-0.0504,-0.048,-0.0464,-0.0389,-0.0358,-0.0315,-0.0241,-0.0206,-0.012,-0.003,0.0036,0.0091,0.0162,0.0226,0.0285,0.0241,0.0229,0.0219,0.0242,0.0286,0.028,0.034,0.034,0.034,0,0,-0.0589,-0.0555,-0.054,-0.0488,-0.0444,-0.0416,-0.0366,-0.0325,-0.0298,-0.019,-0.0125,-0.007,0.0037,0.009,0.0124,0.0164,0.0226,0.0215,0.0206,0.0236,0.0282,0.0277,0.0272,0.0338,0.0339,0.0339,0,0,-0.0586,-0.0564,-0.0546,-0.0521,-0.0477,-0.0437,-0.0435,-0.0361,-0.0326,-0.027,-0.0203,-0.0158,-0.0031,0.0029,0.0081,0.0054,0.0147,0.0072,0.0046,0.0085,0.0081,0.0078,0.0114,0.0116,0.0084,0.0084,0.0084,0,-0.0595,-0.0568,-0.0534,-0.0515,-0.05,-0.0454,-0.0439,-0.0396,-0.031,-0.0286,-0.0266,-0.0132,-0.0057,0.001,-0.0006,0.003,0.0068,0.0086,0.007,0.0068,0.0068,0.0106,0.011,0.0077,0.0078,0.0079,0.0079,0,-0.0576,-0.0566,-0.0556,-0.0523,-0.0503,-0.0487,-0.0444,-0.0422,-0.0388,-0.0341,-0.0291,-0.0211,-0.0123,-0.0113,-0.0057,-0.0027,0.0003,0.003,0.0101,0.0053,0.0096,0.0102,0.0067,0.0069,0.0071,0.0073,0,0,-0.0568,-0.0548,-0.0546,-0.055,-0.0514,-0.0496,-0.0473,-0.0436,-0.0415,-0.0361,-0.0325,-0.025,-0.0217,-0.0159,-0.0105,-0.0066,-0.0061,-0.0019,-0.0014,0.0011,0.0026,0.0043,0.0052,-0.0041,-0.004,-0.0039,0.0045,0,-0.0567,-0.0561,-0.054,-0.0539,-0.054,-0.0512,-0.0493,-0.0457,-0.042,-0.0378,-0.0318,-0.0265,-0.023,-0.0201,-0.0162,-0.0077,-0.0045,-0.0086,0.0077,0.0083,0.0099,0.006,0.0099,0.0179,0.0052,0.0053,0.0054,0,-0.0557,-0.056,-0.0567,-0.0569,-0.0565,-0.0554,-0.0535,-0.0509,-0.0449,-0.0418,-0.0365,-0.0309,-0.024,-0.0217,-0.0095,-0.0122,-0.0057,-0.0,0.0005,0.0088,0.0113,0.0215,0.0196,0.0266,0.0065,0.0064,0.0064,0,-0.0588,-0.0581,-0.0598,-0.0597,-0.0583,-0.0582,-0.057,-0.0524,-0.0501,-0.0443,-0.0413,-0.0332,-0.0273,-0.0193,-0.0075,-0.0082,0.0058,0.0064,0.0138,0.014,0.0245,0.0254,0.0317,0.0139,0.0139,0.0139,0.0139,0,-0.0608,-0.0619,-0.0618,-0.0629,-0.0642,-0.0619,-0.0615,-0.0589,-0.054,-0.0489,-0.0437,-0.0369,-0.0263,-0.0165,-0.0079,0.0056,0.0057,0.0139,0.0166,0.0191,0.0195,0.0321,0.0338,0.0142,0.0141,0.0141,0.014,0,-0.0639,-0.064,-0.0659,-0.066,-0.066,-0.067,-0.065,-0.0635,-0.059,-0.0521,-0.0501,-0.0388,-0.0254,-0.0153,0.0,0.0064,0.0231,0.0221,0.0239,0.0266,0.0382,0.0389,0.0501,0.0567,0.0313,0.0314,0.0314,0,-0.0655,-0.0671,-0.0687,-0.07,-0.0702,-0.071,-0.0704,-0.0667,-0.0627,-0.0507,-0.0457,-0.0335,-0.0185,0.0013,0.0115,0.0251,0.0301,0.0355,0.0344,0.04,0.0428,0.0422,0.047,0.0419,0.0421,0.0422,0.0423,0,-0.0682,-0.0688,-0.0703,-0.073,-0.0737,-0.072,-0.0694,-0.0661,-0.0574,-0.0483,-0.0301,-0.0177,-0.002,0.0162,0.0277,0.0353,0.0409,0.0386,0.0454,0.0526,0.0519,0.0592,0.0343,0.0435,0.0434,0.0433,0.0432,0.0432,-0.0692,-0.0712,-0.0727,-0.074,-0.073,-0.066,-0.0602,-0.0538,-0.0413,-0.0209,-0.0147,0.0076,0.0231,0.0409,0.0453,0.055,0.052,0.061,0.0617,0.0608,0.0663,0.0427,0.0537,0.0537,0.0536,0.0536,0.0535,0,-0.0691,-0.0704,-0.0729,-0.0697,-0.0623,-0.0632,-0.0531,-0.0428,-0.0216,-0.0076,0.0124,0.0396,0.055,0.0624,0.073,0.0791,0.0801,0.0823,0.0839,0.0881,0.0696,0.0692,0.0829,0.0829,0.0829,0.0829,0.0829,0.0829,-0.069,-0.0703,-0.0705,-0.0572,-0.052,-0.0367,-0.0267,-0.0131,-0.0003,0.0284,0.0466,0.0596,0.0757,0.0856,0.096,0.0978,0.1067,0.1034,0.108,0.0956,0.0936,0.0918,0.092,0.1102,0.1102,0.1287,0.1288,0.129]}],[{"header":{"parameterUnit":"m.s-1","parameterCategory":2,"la1":30.2991,"la2":30.254,"lo1":-89.0895,"lo2":-89.0444,"dy":0.0017,"dx":0.0017,"nx":28,"ny":28,"refTime":"2025-09-17T09:00:00:Z","depth":"2","parameterNumber":2,"parameterNumberName":"U-component_of_CURRENTS"},"data":[0,0,0,0,0,0,0,0,0,0,0,0,0,0,0,0,0,0,0,0,0,0,0,0,0,0,0,0,0,0,0,0,0,0,0,0,0,0,0,0,0,0,0,0,0,0,0,0,0,0,0,0,0,0,0,0,0,0,-0.1658,-0.1659,0,-0.1669,-0.1669,-0.1668,-0.1715,-0.1716,-0.1717,-0.1719,-0.188,-0.1883,-0.1886,0,0,0,0,0,0,0,0,0,0,0,0,0,-0.1595,-0.1596,-0.1658,-0.1659,-0.1659,-0.1669,-0.1669,-0.1668,-0.1714,-0.1716,-0.1718,-0.1719,-0.1879,-0.1883,-0.1886,0,0,0,0,0,0,0,0,0,0,0,0,0,-0.1612,-0.1596,-0.1658,-0.1686,-0.1689,-0.1669,-0.1669,-0.1668,-0.1714,-0.1716,-0.1718,-0.172,-0.1878,-0.1882,-0.1887,-0.1872,0,0,-0.19,-0.1902,0,0,0,0,0,0,0,0,-0.1611,-0.1614,-0.1681,-0.1684,-0.1687,-0.1696,-0.1705,-0.1745,-0.1713,-0.17,-0.1719,-0.1721,-0.1833,-0.1842,-0.1831,-0.1879,-0.1886,-0.1901,-0.1903,-0.1905,-0.1907,0,0,0,0,0,0,0,-0.161,-0.1613,-0.1659,-0.1682,-0.1685,-0.167,-0.1675,-0.1712,-0.1755,-0.1702,-0.1706,-0.1712,-0.1836,-0.1827,-0.1836,-0.1889,-0.1901,-0.1905,-0.1907,-0.1909,-0.191,-0.1908,0,0,0,0,0,0,-0.1618,-0.1612,-0.1658,-0.1659,-0.1658,-0.167,-0.1675,-0.1688,-0.1751,-0.1763,-0.1711,-0.1715,-0.1818,-0.1831,-0.1842,-0.1852,-0.1905,-0.191,-0.1912,-0.1913,-0.191,-0.1907,0,0,0,0,0,0,-0.1617,-0.1622,-0.1658,-0.1639,-0.1643,-0.167,-0.1683,-0.1687,-0.1703,-0.1757,-0.1771,-0.1726,-0.182,-0.1836,-0.1889,-0.1858,-0.1912,-0.1916,-0.1916,-0.1912,-0.1908,-0.1857,0,0,0,0,0,0,-0.1615,-0.1622,-0.1635,-0.1639,-0.1644,-0.1652,-0.1681,-0.1686,-0.1704,-0.171,-0.1774,-0.1789,-0.1823,-0.1882,-0.1893,-0.1865,-0.1919,-0.192,-0.1914,-0.191,-0.1862,-0.1852,-0.1843,0,0,0,0,0,-0.1613,-0.1614,-0.1636,-0.1642,-0.1662,-0.1652,-0.1652,-0.1675,-0.1703,-0.1699,-0.175,-0.1789,-0.1857,-0.1885,-0.1899,-0.1871,-0.1922,-0.1916,-0.191,-0.1866,-0.1854,-0.1843,0,0,0,0,0,0,-0.16,-0.162,-0.1644,-0.1656,-0.1661,-0.1662,-0.1659,-0.1681,-0.1711,-0.1729,-0.1786,-0.1804,-0.1827,-0.185,-0.188,-0.1847,-0.1883,-0.1879,-0.1844,-0.1833,-0.1824,-0.1829,-0.1923,0,0,0,0,0,-0.1603,-0.1605,-0.1626,-0.1633,-0.1637,-0.1652,-0.1655,-0.1671,-0.1697,-0.1712,-0.1755,-0.1786,-0.1803,-0.1827,-0.1845,-0.1852,-0.1863,-0.1827,-0.1818,-0.181,-0.1817,-0.1808,-0.1799,-0.1888,-0.1888,-0.1888,0,0,-0.1601,-0.161,-0.1616,-0.163,-0.1634,-0.1632,-0.1658,-0.1659,-0.1662,-0.1727,-0.1748,-0.177,-0.1797,-0.1794,-0.1803,-0.1821,-0.1781,-0.1802,-0.1796,-0.1808,-0.1801,-0.1793,-0.1786,-0.1884,-0.1884,-0.1885,0,0,-0.1577,-0.1605,-0.1596,-0.1601,-0.1611,-0.1618,-0.1625,-0.1636,-0.1646,-0.1666,-0.1697,-0.1707,-0.1745,-0.1743,-0.1751,-0.1699,-0.1734,-0.1689,-0.1655,-0.1645,-0.1639,-0.1634,-0.161,-0.1603,-0.1682,-0.1682,-0.1682,0,-0.1576,-0.1578,-0.159,-0.1582,-0.1589,-0.1616,-0.1612,-0.1614,-0.1642,-0.165,-0.167,-0.1688,-0.1712,-0.1702,-0.1671,-0.168,-0.1682,-0.1706,-0.1637,-0.1632,-0.1628,-0.1605,-0.1598,-0.1679,-0.1679,-0.168,-0.168,0,-0.1542,-0.1554,-0.1544,-0.155,-0.1555,-0.1551,-0.1567,-0.1573,-0.1595,-0.1603,-0.1606,-0.1621,-0.1635,-0.1615,-0.1636,-0.1598,-0.161,-0.1632,-0.1677,-0.1616,-0.1594,-0.1589,-0.1674,-0.1676,-0.1677,-0.1677,0,0,-0.15,-0.152,-0.1516,-0.1528,-0.1543,-0.1541,-0.1543,-0.1549,-0.1559,-0.1562,-0.1564,-0.1551,-0.1564,-0.157,-0.1576,-0.1556,-0.1507,-0.1578,-0.1579,-0.1574,-0.1478,-0.14,-0.1386,-0.1529,-0.1528,-0.1528,-0.1467,0,-0.147,-0.1462,-0.1477,-0.1477,-0.148,-0.1509,-0.151,-0.1523,-0.1536,-0.1541,-0.1536,-0.1541,-0.1544,-0.1548,-0.1526,-0.153,-0.1494,-0.1521,-0.1521,-0.1521,-0.1476,-0.1377,-0.128,-0.1211,-0.1462,-0.1461,-0.146,0,-0.142,-0.1429,-0.1428,-0.146,-0.1463,-0.1465,-0.1485,-0.1491,-0.1503,-0.1514,-0.1516,-0.1529,-0.1504,-0.1512,-0.1477,-0.1501,-0.1478,-0.1467,-0.1466,-0.1414,-0.1431,-0.1315,-0.1192,-0.1451,-0.1451,-0.1452,-0.1453,0,-0.1374,-0.139,-0.1394,-0.1402,-0.1438,-0.1442,-0.1459,-0.1479,-0.1488,-0.1498,-0.1508,-0.1498,-0.1492,-0.1473,-0.1445,-0.1469,-0.14,-0.1435,-0.1333,-0.1328,-0.1254,-0.1243,-0.1386,-0.1386,-0.1386,-0.1386,-0.1386,0,-0.133,-0.133,-0.1375,-0.1377,-0.1383,-0.1418,-0.1423,-0.144,-0.1465,-0.1462,-0.1491,-0.1477,-0.1484,-0.1453,-0.1432,-0.135,-0.1387,-0.1303,-0.1297,-0.1226,-0.1214,-0.1443,-0.1451,-0.1384,-0.1384,-0.1385,-0.1385,0,-0.1271,-0.1303,-0.1308,-0.1349,-0.136,-0.1361,-0.1403,-0.1407,-0.1442,-0.1438,-0.1442,-0.1457,-0.1406,-0.139,-0.1345,-0.1317,-0.126,-0.1218,-0.1122,-0.1104,-0.1201,-0.1206,-0.1106,-0.1102,-0.1099,-0.1097,-0.1095,0,-0.124,-0.1238,-0.1276,-0.128,-0.1296,-0.1315,-0.1325,-0.1377,-0.1382,-0.1408,-0.1392,-0.1365,-0.132,-0.1229,-0.1149,-0.1071,-0.1146,-0.0953,-0.0968,-0.1162,-0.1168,-0.1178,-0.1187,-0.0845,-0.0841,-0.0838,-0.0835,0,-0.1177,-0.1191,-0.1201,-0.121,-0.1221,-0.1232,-0.1251,-0.1257,-0.1302,-0.1316,-0.1296,-0.1271,-0.1169,-0.1036,-0.0932,-0.088,-0.0963,-0.0883,-0.1101,-0.0929,-0.0911,-0.0919,-0.0937,-0.0806,-0.0809,-0.0811,-0.0813,-0.0814,-0.112,-0.1112,-0.1123,-0.1118,-0.1129,-0.1114,-0.1097,-0.1129,-0.1129,-0.1106,-0.1153,-0.1076,-0.1041,-0.0813,-0.0734,-0.065,-0.0728,-0.0714,-0.0727,-0.0742,-0.0721,-0.0698,-0.0549,-0.0551,-0.0552,-0.0553,-0.0554,0,-0.104,-0.1033,-0.1029,-0.101,-0.097,-0.1015,-0.1013,-0.0979,-0.0946,-0.0945,-0.0926,-0.0799,-0.0694,-0.0642,-0.0464,-0.0429,-0.045,-0.0414,-0.046,-0.0487,-0.0511,-0.0483,-0.0245,-0.0245,-0.0244,-0.0243,0,0,-0.0996,-0.0954,-0.0945,-0.084,-0.083,-0.0756,-0.0737,-0.0718,-0.07,-0.0645,-0.0606,-0.065,-0.0635,-0.0466,-0.0406,-0.0299,-0.0395,-0.0267,-0.051,-0.0592,-0.0617,-0.0671,-0.0653,0,0,0,0,0]},{"header":{"parameterUnit":"m.s-1","parameterCategory":2,"la1":30.2991,"la2":30.254,"lo1":-89.0895,"lo2":-89.0444,"dy":0.0017,"dx":0.0017,"nx":28,"ny":28,"refTime":"2025-09-17T09:00:00:Z","depth":"2","parameterNumber":3,"parameterNumberName":"V-component_of_CURRENTS"},"data":[0,0,0,0,0,0,0,0,0,0,0,0,0,0,0,0,0,0,0,0,0,0,0,0,0,0,0,0,0,0,0,0,0,0,0,0,0,0,0,0,0,0,0,0,0,0,0,0,0,0,0,0,0,0,0,0,0,0,-0.0286,-0.0285,0,-0.021,-0.0209,-0.0208,-0.0139,-0.0139,-0.0138,-0.0137,0.005,0.0054,0.0059,0,0,0,0,0,0,0,0,0,0,0,0,0,-0.0335,-0.0335,-0.0286,-0.0285,-0.0284,-0.021,-0.0209,-0.0207,-0.0139,-0.0139,-0.0138,-0.0137,0.0049,0.0054,0.0059,0,0,0,0,0,0,0,0,0,0,0,0,0,-0.029,-0.0335,-0.0286,-0.0243,-0.0238,-0.021,-0.0209,-0.0207,-0.014,-0.0139,-0.0138,-0.0137,0.0047,0.0053,0.006,0.0081,0,0,0.008,0.0083,0,0,0,0,0,0,0,0,-0.0293,-0.0288,-0.025,-0.0246,-0.0241,-0.0185,-0.0157,-0.0106,-0.014,-0.0175,-0.0137,-0.0136,-0.002,-0.0008,0.0005,0.009,0.0098,0.0081,0.0085,0.0087,0.0089,0,0,0,0,0,0,0,-0.0296,-0.0291,-0.0254,-0.0249,-0.0244,-0.0214,-0.0207,-0.0147,-0.01,-0.0172,-0.0167,-0.0162,-0.0016,-0.0001,0.0011,0.0101,0.008,0.0086,0.009,0.0093,0.0202,0.0201,0,0,0,0,0,0,-0.0312,-0.0294,-0.0256,-0.0252,-0.0267,-0.0215,-0.0206,-0.0202,-0.0103,-0.0089,-0.0163,-0.0159,-0.0013,0.0003,0.0018,0.006,0.0087,0.0093,0.0097,0.0203,0.0202,0.02,0,0,0,0,0,0,-0.0314,-0.031,-0.0259,-0.0273,-0.0264,-0.0215,-0.0211,-0.0201,-0.018,-0.0098,-0.0081,-0.0151,-0.0012,0.0008,0.0063,0.0068,0.0096,0.0102,0.0204,0.0202,0.0201,0.0139,0,0,0,0,0,0,-0.0315,-0.0311,-0.0316,-0.0274,-0.0264,-0.024,-0.0212,-0.02,-0.0179,-0.0173,-0.0082,-0.0064,-0.0009,0.0053,0.007,0.0077,0.0108,0.0205,0.0203,0.0201,0.0142,0.0135,0.013,0,0,0,0,0,-0.0317,-0.0322,-0.0316,-0.0312,-0.0272,-0.024,-0.0232,-0.0193,-0.018,-0.017,-0.012,-0.0067,0.0052,0.0057,0.0077,0.0087,0.0206,0.0204,0.0202,0.0145,0.0137,0.013,0,0,0,0,0,0,-0.0341,-0.0314,-0.0307,-0.0303,-0.0276,-0.0229,-0.022,-0.0198,-0.0153,-0.0144,-0.0071,-0.005,-0.0002,0.0042,0.0046,0.0107,0.0134,0.0136,0.0085,0.0077,0.0071,0.0069,0.0113,0,0,0,0,0,-0.0353,-0.0351,-0.0319,-0.0316,-0.0306,-0.0267,-0.0251,-0.0225,-0.0181,-0.016,-0.0105,-0.0049,0.0001,0.0038,0.0088,0.013,0.0167,0.0143,0.0137,0.0131,0.0139,0.0181,0.018,0.0193,0.0193,0.0193,0,0,-0.0361,-0.0348,-0.0345,-0.0321,-0.0299,-0.0285,-0.0254,-0.023,-0.0215,-0.0145,-0.0109,-0.0064,0.0004,0.0046,0.0071,0.0088,0.0143,0.0128,0.0123,0.0135,0.0179,0.0178,0.0177,0.0191,0.0191,0.0191,0,0,-0.0372,-0.0366,-0.0366,-0.0349,-0.0322,-0.0298,-0.0295,-0.0253,-0.023,-0.0196,-0.0148,-0.0106,-0.0029,0.0019,0.0054,0.0041,0.0104,0.0052,0.0031,0.007,0.007,0.0071,0.0102,0.0106,0.0053,0.0053,0.0053,0,-0.0385,-0.0382,-0.036,-0.0355,-0.0345,-0.0308,-0.0303,-0.0276,-0.0223,-0.0204,-0.0191,-0.0098,-0.0041,0.0016,0.0008,0.0032,0.0058,0.0058,0.0064,0.0065,0.0067,0.0099,0.0104,0.0049,0.005,0.005,0.005,0,-0.0393,-0.0393,-0.0391,-0.0378,-0.0363,-0.0352,-0.0318,-0.03,-0.0276,-0.0244,-0.0195,-0.0133,-0.0074,-0.0058,-0.0022,0.0014,0.003,0.0048,0.0086,0.0062,0.0097,0.0103,0.0045,0.0046,0.0047,0.0048,0,0,-0.0415,-0.0401,-0.0401,-0.0402,-0.0375,-0.0363,-0.0345,-0.0312,-0.0296,-0.0254,-0.0226,-0.0157,-0.0127,-0.0088,-0.0042,-0.0007,0.0021,0.0021,0.0024,0.0057,0.0103,0.0114,0.0122,0.004,0.0041,0.0041,0.0118,0,-0.0429,-0.0435,-0.0418,-0.0419,-0.042,-0.0388,-0.0374,-0.034,-0.0306,-0.0272,-0.0211,-0.0168,-0.0136,-0.0111,-0.0072,0.0004,0.0037,-0.0002,0.0118,0.0121,0.0139,0.013,0.0126,0.0194,0.0124,0.0125,0.0126,0,-0.0442,-0.0446,-0.0454,-0.0446,-0.0442,-0.0437,-0.041,-0.039,-0.0333,-0.0305,-0.0255,-0.0205,-0.0138,-0.0119,-0.0004,-0.0031,0.0029,0.008,0.0084,0.0126,0.0145,0.021,0.0209,0.0138,0.0137,0.0136,0.0135,0,-0.0473,-0.047,-0.0482,-0.0479,-0.0462,-0.046,-0.0448,-0.0403,-0.0383,-0.0326,-0.0302,-0.0221,-0.0171,-0.0093,0.0013,0.0006,0.0134,0.0142,0.0207,0.0208,0.0246,0.0249,0.0216,0.0215,0.0215,0.0215,0.0215,0,-0.0497,-0.0505,-0.05,-0.0508,-0.0519,-0.0494,-0.049,-0.0464,-0.0419,-0.0385,-0.0323,-0.0271,-0.0162,-0.0073,0.0009,0.0131,0.0135,0.0208,0.0232,0.0221,0.022,0.0208,0.0206,0.0218,0.0217,0.0217,0.0216,0,-0.0528,-0.0524,-0.0539,-0.0536,-0.0536,-0.0546,-0.0528,-0.0517,-0.0472,-0.0426,-0.0409,-0.0299,-0.0177,-0.007,0.0073,0.0135,0.0241,0.0281,0.0254,0.0273,0.0287,0.028,0.0361,0.0362,0.0363,0.0364,0.0364,0,-0.0543,-0.0555,-0.0569,-0.0582,-0.0584,-0.0591,-0.059,-0.0553,-0.053,-0.0431,-0.0404,-0.0282,-0.0177,0.0025,0.0156,0.0294,0.0287,0.0356,0.0343,0.0288,0.0304,0.0296,0.0289,0.0365,0.0366,0.0366,0.0367,0,-0.0571,-0.0577,-0.0591,-0.0623,-0.0635,-0.0648,-0.0639,-0.0632,-0.0566,-0.0518,-0.0411,-0.0321,-0.0098,0.0068,0.0236,0.0317,0.0329,0.037,0.034,0.0321,0.0297,0.031,0.0302,0.0371,0.0371,0.037,0.037,0.037,-0.0588,-0.061,-0.0631,-0.0661,-0.0682,-0.0703,-0.0707,-0.0678,-0.0649,-0.0547,-0.0446,-0.0281,-0.0109,0.0152,0.0271,0.0392,0.0396,0.0416,0.0413,0.041,0.0389,0.0367,0.045,0.045,0.045,0.045,0.045,0,-0.0605,-0.063,-0.0664,-0.0702,-0.0735,-0.0735,-0.0732,-0.071,-0.0674,-0.0541,-0.0436,-0.0243,-0.0051,0.0143,0.0347,0.0443,0.0432,0.0449,0.0416,0.0413,0.0409,0.0386,0.0448,0.0448,0.0448,0.0448,0,0,-0.0613,-0.065,-0.0672,-0.0738,-0.0766,-0.0787,-0.0787,-0.0743,-0.0646,-0.0521,-0.038,-0.0242,-0.0,0.0114,0.0248,0.0368,0.0358,0.0373,0.037,0.0314,0.0308,0.0392,0.0353,0,0,0,0,0]}],[{"header":{"parameterUnit":"m.s-1","parameterCategory":2,"la1":30.2991,"la2":30.254,"lo1":-89.0895,"lo2":-89.0444,"dy":0.0017,"dx":0.0017,"nx":28,"ny":28,"refTime":"2025-09-17T09:00:00:Z","depth":"4","parameterNumber":2,"parameterNumberName":"U-component_of_CURRENTS"},"data":[0,0,0,0,0,0,0,0,0,0,0,0,0,0,0,0,0,0,0,0,0,0,0,0,0,0,0,0,0,0,0,0,0,0,0,0,0,0,0,0,0,0,0,0,0,0,0,0,0,0,0,0,0,0,0,0,0,0,-0.1075,-0.1076,0,-0.1095,-0.1095,-0.1095,-0.11,-0.11,-0.11,-0.1099,-0.1132,-0.1132,-0.1133,0,0,0,0,0,0,0,0,0,0,0,0,0,-0.102,-0.1021,-0.1075,-0.1076,-0.1076,-0.1095,-0.1095,-0.1096,-0.11,-0.11,-0.11,-0.1099,-0.1131,-0.1132,-0.1134,0,0,0,0,0,0,0,0,0,0,0,0,0,-0.1042,-0.1021,-0.1075,-0.108,-0.1081,-0.1095,-0.1095,-0.1096,-0.11,-0.11,-0.11,-0.1099,-0.1131,-0.1132,-0.1134,-0.1147,0,0,-0.1138,-0.1139,0,0,0,0,0,0,0,0,-0.1041,-0.1044,-0.1079,-0.108,-0.1081,-0.1095,-0.1088,-0.1113,-0.11,-0.1093,-0.1099,-0.1099,-0.1121,-0.1123,-0.1127,-0.1148,-0.115,-0.1138,-0.1139,-0.114,-0.114,0,0,0,0,0,0,0,-0.1039,-0.1043,-0.1083,-0.108,-0.1081,-0.1074,-0.1077,-0.1092,-0.1108,-0.1093,-0.1094,-0.1096,-0.1121,-0.1125,-0.1128,-0.115,-0.1138,-0.114,-0.114,-0.1141,-0.1192,-0.1193,0,0,0,0,0,0,-0.1039,-0.1042,-0.1082,-0.1084,-0.106,-0.1076,-0.1079,-0.109,-0.1107,-0.111,-0.1096,-0.1096,-0.1123,-0.1126,-0.1129,-0.1176,-0.114,-0.1141,-0.1142,-0.1192,-0.1192,-0.1193,0,0,0,0,0,0,-0.1038,-0.1043,-0.1082,-0.1063,-0.1067,-0.1077,-0.109,-0.1091,-0.1114,-0.1109,-0.1112,-0.112,-0.1123,-0.1127,-0.1148,-0.1176,-0.1142,-0.1143,-0.1191,-0.1192,-0.1193,-0.1251,0,0,0,0,0,0,-0.1036,-0.1042,-0.1063,-0.1063,-0.1068,-0.1102,-0.109,-0.1092,-0.1115,-0.1115,-0.113,-0.1132,-0.1123,-0.1146,-0.115,-0.1177,-0.1144,-0.1191,-0.1192,-0.1193,-0.1248,-0.1253,-0.1258,0,0,0,0,0,-0.1034,-0.1052,-0.1064,-0.1069,-0.1093,-0.1103,-0.1106,-0.1111,-0.1116,-0.1131,-0.1134,-0.1132,-0.1154,-0.1148,-0.1152,-0.1181,-0.119,-0.1191,-0.1192,-0.1246,-0.1252,-0.1258,0,0,0,0,0,0,-0.1043,-0.1054,-0.1067,-0.1091,-0.1106,-0.1104,-0.1118,-0.1127,-0.1142,-0.1146,-0.1143,-0.1145,-0.1176,-0.1166,-0.1159,-0.1195,-0.1171,-0.1173,-0.121,-0.1216,-0.1221,-0.1201,-0.1146,0,0,0,0,0,-0.1056,-0.1072,-0.1084,-0.1107,-0.1114,-0.1125,-0.1135,-0.114,-0.1147,-0.1155,-0.117,-0.1175,-0.1181,-0.1189,-0.1196,-0.1219,-0.1193,-0.1237,-0.1242,-0.1246,-0.1231,-0.122,-0.1222,-0.1197,-0.1197,-0.1197,0,0,-0.1069,-0.1076,-0.1089,-0.1111,-0.1121,-0.1135,-0.1131,-0.115,-0.1166,-0.1156,-0.1194,-0.1202,-0.1191,-0.1214,-0.1227,-0.1212,-0.1241,-0.1248,-0.1252,-0.1234,-0.1221,-0.1224,-0.1226,-0.1197,-0.1197,-0.1197,0,0,-0.1084,-0.1108,-0.1122,-0.1135,-0.1153,-0.1157,-0.117,-0.1188,-0.1202,-0.1233,-0.1227,-0.1243,-0.1269,-0.1259,-0.1255,-0.1289,-0.1271,-0.1304,-0.1312,-0.1302,-0.1304,-0.1305,-0.128,-0.1279,-0.1301,-0.1302,-0.1302,0,-0.1103,-0.1117,-0.113,-0.1142,-0.1153,-0.1171,-0.1186,-0.1203,-0.1231,-0.1239,-0.1252,-0.1277,-0.1282,-0.1284,-0.1294,-0.1301,-0.1287,-0.1295,-0.1308,-0.1309,-0.1309,-0.1283,-0.1281,-0.1304,-0.1304,-0.1304,-0.1304,0,-0.1114,-0.1138,-0.1146,-0.1168,-0.1186,-0.12,-0.122,-0.1248,-0.1273,-0.1285,-0.1314,-0.1319,-0.1323,-0.134,-0.1329,-0.1336,-0.1323,-0.1322,-0.1295,-0.1316,-0.1287,-0.1283,-0.1309,-0.1308,-0.1307,-0.1306,0,0,-0.111,-0.1148,-0.1151,-0.1166,-0.1197,-0.1207,-0.124,-0.1261,-0.1276,-0.1317,-0.133,-0.1352,-0.1357,-0.1351,-0.135,-0.1344,-0.1345,-0.1337,-0.1336,-0.1314,-0.1315,-0.122,-0.1206,-0.1355,-0.1355,-0.1355,-0.1296,0,-0.1113,-0.1138,-0.1157,-0.1188,-0.12,-0.1228,-0.1253,-0.1279,-0.1305,-0.1328,-0.1335,-0.1353,-0.136,-0.1368,-0.1365,-0.1353,-0.1338,-0.136,-0.1296,-0.1293,-0.1207,-0.12,-0.1353,-0.1293,-0.1292,-0.1292,-0.1291,0,-0.1099,-0.112,-0.1149,-0.1188,-0.1196,-0.1223,-0.1254,-0.128,-0.1309,-0.1329,-0.1345,-0.1355,-0.1356,-0.1361,-0.1337,-0.1355,-0.1333,-0.132,-0.1317,-0.1199,-0.119,-0.1266,-0.1285,-0.1285,-0.1286,-0.1286,-0.1286,0,-0.1059,-0.1105,-0.1128,-0.1143,-0.1195,-0.1216,-0.1244,-0.128,-0.1297,-0.1326,-0.1339,-0.1347,-0.1347,-0.1334,-0.1311,-0.1329,-0.1272,-0.1293,-0.1178,-0.1171,-0.1252,-0.1251,-0.1258,-0.1258,-0.1258,-0.1258,-0.1259,0,-0.1029,-0.1048,-0.1116,-0.1127,-0.1155,-0.1199,-0.1227,-0.1255,-0.129,-0.1288,-0.1335,-0.1321,-0.1343,-0.1317,-0.13,-0.1214,-0.126,-0.116,-0.1144,-0.1278,-0.1281,-0.1249,-0.1249,-0.1256,-0.1257,-0.1257,-0.1258,0,-0.0974,-0.102,-0.1049,-0.1115,-0.1136,-0.1155,-0.1216,-0.1223,-0.1273,-0.1269,-0.1277,-0.1301,-0.1257,-0.1255,-0.1216,-0.1179,-0.1123,-0.1079,-0.1204,-0.1199,-0.1034,-0.1037,-0.0947,-0.0943,-0.094,-0.0937,-0.0934,0,-0.0945,-0.0957,-0.1031,-0.1046,-0.1079,-0.112,-0.1137,-0.1201,-0.12,-0.1231,-0.1206,-0.1196,-0.119,-0.1061,-0.1078,-0.1017,-0.1007,-0.0979,-0.1019,-0.1005,-0.0999,-0.1008,-0.1016,-0.0929,-0.0928,-0.0927,-0.0926,0,-0.0889,-0.0925,-0.0951,-0.098,-0.1007,-0.1029,-0.1056,-0.1051,-0.1094,-0.1159,-0.1095,-0.1066,-0.1006,-0.0977,-0.0928,-0.0895,-0.1004,-0.0943,-0.0951,-0.0989,-0.0982,-0.0982,-0.0994,-0.0915,-0.0916,-0.0917,-0.0918,0,-0.0846,-0.0849,-0.0881,-0.0892,-0.0919,-0.09,-0.0944,-0.0929,-0.0943,-0.0985,-0.0954,-0.0949,-0.0976,-0.0909,-0.0867,-0.0821,-0.0817,-0.0806,-0.0821,-0.0834,-0.0824,-0.0801,-0.0644,0,0,0,0,0,-0.0796,-0.0778,-0.0784,-0.0784,-0.0802,-0.0812,-0.0857,-0.09,-0.095,-0.0871,-0.0911,-0.085,-0.079,-0.0802,-0.0727,-0.0811,-0.0818,-0.0722,-0.0814,-0.0849,-0.0863,-0.0863,0,0,0,0,0,0,-0.0757,-0.0762,-0.0749,-0.0675,-0.0654,-0.0658,-0.0682,-0.0731,-0.07,-0.0762,-0.0735,-0.0789,-0.0745,-0.08,-0.0702,-0.0703,-0.0741,-0.0733,-0.0731,-0.0842,-0.0854,-0.0865,-0.087,0,0,0,0,0]},{"header":{"parameterUnit":"m.s-1","parameterCategory":2,"la1":30.2991,"la2":30.254,"lo1":-89.0895,"lo2":-89.0444,"dy":0.0017,"dx":0.0017,"nx":28,"ny":28,"refTime":"2025-09-17T09:00:00:Z","depth":"4","parameterNumber":3,"parameterNumberName":"V-component_of_CURRENTS"},"data":[0,0,0,0,0,0,0,0,0,0,0,0,0,0,0,0,0,0,0,0,0,0,0,0,0,0,0,0,0,0,0,0,0,0,0,0,0,0,0,0,0,0,0,0,0,0,0,0,0,0,0,0,0,0,0,0,0,0,-0.0223,-0.0223,0,-0.0192,-0.0192,-0.0192,-0.0181,-0.0181,-0.0181,-0.0181,-0.0135,-0.0133,-0.0132,0,0,0,0,0,0,0,0,0,0,0,0,0,-0.0236,-0.0236,-0.0223,-0.0223,-0.0222,-0.0192,-0.0192,-0.0191,-0.0181,-0.0181,-0.0181,-0.0181,-0.0135,-0.0133,-0.0132,0,0,0,0,0,0,0,0,0,0,0,0,0,-0.022,-0.0236,-0.0223,-0.0214,-0.0213,-0.0193,-0.0192,-0.0191,-0.0181,-0.0181,-0.0181,-0.0182,-0.0136,-0.0134,-0.0131,-0.0112,0,0,-0.0125,-0.0124,0,0,0,0,0,0,0,0,-0.0221,-0.0219,-0.0216,-0.0215,-0.0213,-0.0191,-0.0179,-0.0164,-0.0181,-0.0192,-0.0181,-0.0182,-0.0152,-0.0149,-0.0141,-0.011,-0.0108,-0.0125,-0.0123,-0.0122,-0.0122,0,0,0,0,0,0,0,-0.0222,-0.022,-0.021,-0.0215,-0.0214,-0.0199,-0.0198,-0.0176,-0.017,-0.0191,-0.019,-0.0188,-0.0152,-0.0144,-0.014,-0.0107,-0.0125,-0.0123,-0.0122,-0.0121,-0.0056,-0.0055,0,0,0,0,0,0,-0.0229,-0.0221,-0.0211,-0.0209,-0.0219,-0.0199,-0.0197,-0.0198,-0.0171,-0.0167,-0.0188,-0.0188,-0.0147,-0.0143,-0.0139,-0.0108,-0.0122,-0.012,-0.0119,-0.0056,-0.0056,-0.0055,0,0,0,0,0,0,-0.0229,-0.0228,-0.0212,-0.0215,-0.0212,-0.0199,-0.0199,-0.0197,-0.0191,-0.0169,-0.0165,-0.0185,-0.0147,-0.0142,-0.0125,-0.0107,-0.0119,-0.0118,-0.0057,-0.0056,-0.0055,-0.0052,0,0,0,0,0,0,-0.023,-0.0229,-0.0234,-0.0216,-0.0212,-0.0203,-0.0199,-0.0196,-0.0189,-0.0189,-0.0165,-0.0161,-0.0147,-0.0128,-0.0123,-0.0104,-0.0116,-0.0057,-0.0056,-0.0056,-0.0053,-0.0051,-0.005,0,0,0,0,0,-0.0231,-0.0236,-0.0234,-0.0233,-0.0219,-0.0203,-0.02,-0.019,-0.0189,-0.0186,-0.0173,-0.0161,-0.0119,-0.0126,-0.012,-0.01,-0.0058,-0.0057,-0.0056,-0.0053,-0.0052,-0.005,0,0,0,0,0,0,-0.0245,-0.0235,-0.0233,-0.0235,-0.0222,-0.0202,-0.0201,-0.0191,-0.0177,-0.0178,-0.0158,-0.0153,-0.0127,-0.0119,-0.0127,-0.008,-0.0085,-0.0083,-0.0085,-0.0083,-0.0082,-0.0096,-0.0114,0,0,0,0,0,-0.025,-0.0253,-0.0237,-0.024,-0.0235,-0.0218,-0.0211,-0.0202,-0.0187,-0.0181,-0.0165,-0.0145,-0.0117,-0.0106,-0.0084,-0.0062,-0.0049,-0.0045,-0.0044,-0.0043,-0.005,-0.0013,-0.0009,-0.0052,-0.0052,-0.0052,0,0,-0.0256,-0.0252,-0.0253,-0.0243,-0.0234,-0.0225,-0.0214,-0.0205,-0.0195,-0.0177,-0.0164,-0.0139,-0.011,-0.0083,-0.007,-0.0075,-0.0023,-0.0041,-0.0041,-0.0049,-0.0011,-0.0007,-0.0003,-0.0051,-0.0051,-0.0051,0,0,-0.0265,-0.0266,-0.0268,-0.0259,-0.0247,-0.0234,-0.0232,-0.0212,-0.0201,-0.0184,-0.0161,-0.0131,-0.0103,-0.0072,-0.0053,-0.0032,-0.0015,-0.0023,-0.0029,0.0008,0.0012,0.0016,0.0039,0.0045,-0.0025,-0.0025,-0.0025,0,-0.0274,-0.0275,-0.0265,-0.0264,-0.0259,-0.0239,-0.0235,-0.0219,-0.0195,-0.0183,-0.0184,-0.0123,-0.0095,-0.0049,-0.0041,-0.0027,-0.0014,-0.0036,0.001,0.0014,0.0017,0.0041,0.0047,-0.0025,-0.0025,-0.0025,-0.0025,0,-0.028,-0.0282,-0.0283,-0.0277,-0.0268,-0.0263,-0.024,-0.0228,-0.0215,-0.0194,-0.0155,-0.0117,-0.0083,-0.0059,-0.0044,0.0002,0.0001,0.001,0.0005,0.0022,0.0045,0.0052,-0.0024,-0.0024,-0.0024,-0.0024,0,0,-0.0295,-0.0289,-0.0291,-0.0292,-0.0275,-0.0269,-0.0253,-0.0228,-0.0217,-0.0186,-0.0165,-0.0106,-0.0086,-0.0064,-0.003,0.0003,0.0049,0.0012,0.0014,0.0033,0.012,0.0106,0.0111,0.0065,0.0066,0.0067,0.0127,0,-0.0303,-0.0309,-0.0299,-0.0301,-0.0301,-0.0281,-0.0269,-0.0244,-0.022,-0.0195,-0.0143,-0.0112,-0.0087,-0.0068,-0.0028,0.003,0.0065,0.0031,0.0102,0.0104,0.0088,0.0118,0.007,0.0132,0.0133,0.0134,0.0135,0,-0.0311,-0.0316,-0.0322,-0.0317,-0.0315,-0.0314,-0.0295,-0.0279,-0.0235,-0.0216,-0.0174,-0.0138,-0.0077,-0.0063,0.0037,0.0011,0.0062,0.0104,0.0108,0.0094,0.0101,0.0112,0.0146,0.0146,0.0145,0.0144,0.0143,0,-0.0331,-0.0331,-0.034,-0.0339,-0.0329,-0.033,-0.0323,-0.029,-0.0277,-0.0232,-0.0218,-0.0145,-0.0108,-0.0037,0.0048,0.0044,0.0151,0.0159,0.0194,0.0193,0.0185,0.0181,0.0228,0.0228,0.0228,0.0227,0.0227,0,-0.0342,-0.0351,-0.0355,-0.0362,-0.0376,-0.0357,-0.0361,-0.0342,-0.031,-0.0294,-0.0235,-0.0203,-0.01,-0.0027,0.0045,0.0136,0.0152,0.0195,0.0211,0.0185,0.018,0.019,0.0185,0.023,0.0229,0.0229,0.0228,0,-0.036,-0.0361,-0.0378,-0.0383,-0.0388,-0.0402,-0.0401,-0.0397,-0.0363,-0.0341,-0.0329,-0.024,-0.0143,-0.0041,0.0084,0.0131,0.0219,0.0248,0.0205,0.0218,0.0235,0.023,0.0291,0.0291,0.0291,0.0291,0.0291,0,-0.0368,-0.0379,-0.0407,-0.0427,-0.0435,-0.0451,-0.046,-0.0434,-0.0425,-0.0362,-0.035,-0.0253,-0.0186,-0.0028,0.0084,0.0219,0.0237,0.0271,0.026,0.0234,0.0244,0.0238,0.0232,0.0291,0.0291,0.0291,0.0291,0,-0.0386,-0.0402,-0.0421,-0.0466,-0.0491,-0.0511,-0.0519,-0.0514,-0.0473,-0.0441,-0.0372,-0.028,-0.0164,-0.0034,0.0074,0.0172,0.0241,0.0272,0.0273,0.0263,0.0235,0.0243,0.0238,0.0291,0.0291,0.0291,0.0291,0,-0.0405,-0.043,-0.0463,-0.05,-0.0538,-0.0562,-0.0559,-0.054,-0.0522,-0.0445,-0.0421,-0.0291,-0.0206,-0.0057,0.0043,0.0137,0.016,0.0171,0.0177,0.0178,0.0127,0.0075,0.0099,0,0,0,0,0,-0.042,-0.0451,-0.0491,-0.0534,-0.0572,-0.059,-0.0593,-0.0577,-0.0533,-0.0497,-0.0458,-0.0352,-0.0187,-0.0104,-0.0013,0.0047,0.0176,0.0155,0.0191,0.0293,0.0292,0.0251,0,0,0,0,0,0,-0.0432,-0.0475,-0.0496,-0.0556,-0.0586,-0.0624,-0.0626,-0.0595,-0.0565,-0.0508,-0.0418,-0.0352,-0.0186,-0.0245,-0.002,0.0014,0.0043,0.0244,0.0245,0.0293,0.0293,0.0292,0.0249,0,0,0,0,0]}]]